timestamp,wind_dir_avg,wind_spd_avg,wind_spd_max_dir,wind_spd_gust,battery_voltage,lat,long
2022-05-03 00:04:00+00:00,42.0,4.59,66.0,7.64,12.57,47.59359,-54.27349
2022-05-03 00:14:01+00:00,47.0,4.4,65.0,7.8,12.41,47.59359,-54.27349
2022-05-03 00:24:01+00:00,45.0,3.62,58.0,4.93,12.41,47.59359,-54.27349
2022-05-03 00:34:01+00:00,41.0,3.49,65.0,4.82,12.41,47.59359,-54.27349
2022-05-03 00:44:01+00:00,57.0,4.88,55.0,6.01,12.41,47.59359,-54.27349
2022-05-03 00:54:01+00:00,58.0,5.18,58.0,5.86,12.41,47.59359,-54.27349
2022-05-03 01:04:01+00:00,49.0,3.66,68.0,5.41,12.41,47.59359,-54.27349
2022-05-03 01:14:01+00:00,59.0,4.9,55.0,6.06,12.41,47.59359,-54.27349
2022-05-03 01:24:01+00:00,49.0,3.8,66.0,6.52,12.41,47.59359,-54.27349
2022-05-03 01:34:01+00:00,66.0,4.91,63.0,5.47,12.41,47.59359,-54.27349
2022-05-03 01:44:01+00:00,65.0,4.9,60.0,5.5,12.41,47.59359,-54.27349
2022-05-03 01:54:01+00:00,65.0,4.92,66.0,5.3,12.41,47.59359,-54.27349
2022-05-03 02:04:01+00:00,56.0,4.49,68.0,6.63,12.41,47.59359,-54.27349
2022-05-03 02:14:00+00:00,62.0,6.39,62.0,6.77,12.41,47.59359,-54.27349
2022-05-03 02:24:00+00:00,69.0,6.49,70.0,6.98,12.41,47.59359,-54.27349
2022-05-03 02:34:00+00:00,62.0,6.66,62.0,7.02,12.41,47.59359,-54.27349
2022-05-03 02:44:00+00:00,65.0,6.33,67.0,6.66,12.41,47.59359,-54.27349
2022-05-03 02:54:00+00:00,64.0,6.33,65.0,6.6,12.41,47.59359,-54.27349
2022-05-03 03:04:00+00:00,61.0,5.78,62.0,6.23,12.41,47.59359,-54.27349
2022-05-03 03:14:00+00:00,53.0,6.32,54.0,6.47,12.33,47.59359,-54.27349
2022-05-03 03:24:00+00:00,47.0,5.76,48.0,6.77,12.33,47.59359,-54.27349
2022-05-03 03:34:00+00:00,38.0,6.47,41.0,7.34,12.33,47.59359,-54.27349
2022-05-03 03:44:00+00:00,32.0,6.08,44.0,7.45,12.33,47.59359,-54.27349
2022-05-03 03:54:00+00:00,38.0,5.88,44.0,6.92,12.33,47.59359,-54.27349
2022-05-03 04:04:00+00:00,37.0,7.09,40.0,7.8,12.33,47.59359,-54.27349
2022-05-03 04:14:00+00:00,6.0,5.25,28.0,6.61,12.33,47.59359,-54.27349
2022-05-03 04:24:00+00:00,13.0,5.15,41.0,6.84,12.33,47.59359,-54.27349
2022-05-03 04:34:00+00:00,3.0,5.27,3.0,5.66,12.33,47.59359,-54.27349
2022-05-03 04:44:00+00:00,5.0,5.5,26.0,6.25,12.33,47.59359,-54.27349
2022-05-03 04:54:00+00:00,14.0,6.12,35.0,8.17,12.33,47.59359,-54.27349
2022-05-03 05:04:00+00:00,3.0,6.15,19.0,7.06,12.33,47.59359,-54.27349
2022-05-03 05:14:00+00:00,4.0,6.29,29.0,7.37,12.33,47.59359,-54.27349
2022-05-03 05:24:00+00:00,36.0,8.15,37.0,9.01,12.33,47.59359,-54.27349
2022-05-03 05:34:00+00:00,29.0,6.73,34.0,8.07,12.33,47.59359,-54.27349
2022-05-03 05:44:00+00:00,359.0,6.1,359.0,6.85,12.33,47.59359,-54.27349
2022-05-03 05:54:00+00:00,2.0,7.66,3.0,8.47,12.33,47.59359,-54.27349
2022-05-03 06:04:00+00:00,1.0,5.42,5.0,6.06,12.33,47.59359,-54.27349
2022-05-03 06:14:01+00:00,4.0,4.24,1.0,5.35,12.25,47.59359,-54.27349
2022-05-03 06:24:01+00:00,7.0,3.63,14.0,4.61,12.25,47.59359,-54.27349
2022-05-03 06:34:01+00:00,3.0,5.95,4.0,6.54,12.25,47.59359,-54.27349
2022-05-03 06:44:01+00:00,9.0,4.33,41.0,5.59,12.25,47.59359,-54.27349
2022-05-03 06:54:01+00:00,3.0,4.56,0.0,5.58,12.25,47.59359,-54.27349
2022-05-03 07:04:01+00:00,4.0,4.67,2.0,5.56,12.25,47.59359,-54.27349
2022-05-03 07:14:00+00:00,4.0,4.94,2.0,6.03,12.17,47.59359,-54.27349
2022-05-03 07:24:00+00:00,1.0,6.16,1.0,6.42,12.17,47.59359,-54.27349
2022-05-03 07:34:00+00:00,1.0,5.3,2.0,5.95,12.17,47.59359,-54.27349
2022-05-03 07:44:00+00:00,358.0,4.26,359.0,4.81,12.17,47.59359,-54.27349
2022-05-03 07:54:00+00:00,354.0,4.98,355.0,5.89,12.17,47.59359,-54.27349
2022-05-03 08:04:00+00:00,359.0,5.14,0.0,6.11,12.17,47.59359,-54.27349
2022-05-03 08:14:01+00:00,357.0,6.18,357.0,6.62,12.17,47.59359,-54.27349
2022-05-03 08:24:01+00:00,359.0,4.45,359.0,4.86,12.17,47.59359,-54.27349
2022-05-03 08:34:01+00:00,359.0,4.52,358.0,5.25,12.17,47.59359,-54.27349
2022-05-03 08:44:01+00:00,2.0,4.39,1.0,4.92,12.17,47.59359,-54.27349
2022-05-03 08:54:01+00:00,3.0,4.1,2.0,4.93,12.17,47.59359,-54.27349
2022-05-03 09:04:01+00:00,358.0,4.88,359.0,5.54,12.17,47.59359,-54.27349
2022-05-03 09:14:00+00:00,355.0,5.06,357.0,5.66,12.17,47.59359,-54.27349
2022-05-03 09:24:00+00:00,345.0,4.4,342.0,5.16,12.17,47.59359,-54.27349
2022-05-03 09:34:00+00:00,351.0,4.78,352.0,5.3,12.17,47.59359,-54.27349
2022-05-03 09:44:00+00:00,354.0,4.39,356.0,4.81,12.17,47.59359,-54.27349
2022-05-03 09:54:00+00:00,355.0,5.08,354.0,5.54,12.17,47.59359,-54.27349
2022-05-03 10:04:00+00:00,315.0,0.01,355.0,0.0,12.17,47.59359,-54.27349
2022-05-03 10:14:01+00:00,351.0,3.87,352.0,4.31,13.05,47.59359,-54.27349
2022-05-03 10:24:01+00:00,356.0,4.56,357.0,4.63,13.05,47.59359,-54.27349
2022-05-03 10:34:01+00:00,13.0,3.04,11.0,3.84,13.05,47.59359,-54.27349
2022-05-03 10:44:01+00:00,315.0,0.01,16.0,0.0,13.05,47.59359,-54.27349
2022-05-03 10:54:01+00:00,2.0,4.38,1.0,4.95,13.05,47.59359,-54.27349
2022-05-03 11:04:01+00:00,9.0,4.39,9.0,4.4,13.05,47.59359,-54.27349
2022-05-03 11:14:01+00:00,315.0,0.01,9.0,0.0,13.68,47.59359,-54.27349
2022-05-03 11:24:01+00:00,315.0,0.01,15.0,0.0,13.68,47.59359,-54.27349
2022-05-03 11:34:01+00:00,315.0,0.01,16.0,0.0,13.68,47.59359,-54.27349
2022-05-03 11:44:01+00:00,19.0,1.98,10.0,2.27,13.68,47.59359,-54.27349
2022-05-03 11:54:01+00:00,78.0,2.45,75.0,2.65,13.68,47.59359,-54.27349
2022-05-03 12:04:01+00:00,55.0,2.79,55.0,3.12,13.68,47.59359,-54.27349
2022-05-03 12:14:01+00:00,40.0,2.46,34.0,2.72,13.76,47.59359,-54.27349
2022-05-03 12:24:01+00:00,61.0,3.08,58.0,3.31,13.76,47.59359,-54.27349
2022-05-03 12:34:01+00:00,57.0,2.9,57.0,3.33,13.76,47.59359,-54.27349
2022-05-03 12:44:01+00:00,37.0,2.64,35.0,2.83,13.76,47.59359,-54.27349
2022-05-03 12:54:01+00:00,45.0,1.61,27.0,2.56,13.76,47.59359,-54.27349
2022-05-03 13:04:01+00:00,35.0,0.9,8.0,2.42,13.76,47.59359,-54.27349
2022-05-03 13:14:01+00:00,356.0,5.77,357.0,6.34,14.32,47.59359,-54.27349
2022-05-03 13:24:01+00:00,354.0,4.8,356.0,5.47,14.32,47.59359,-54.27349
2022-05-03 13:34:01+00:00,3.0,3.8,5.0,4.2,14.32,47.59359,-54.27349
2022-05-03 13:44:01+00:00,356.0,5.47,357.0,6.0,14.32,47.59359,-54.27349
2022-05-03 13:54:01+00:00,358.0,4.82,359.0,5.19,14.32,47.59359,-54.27349
2022-05-03 14:04:01+00:00,357.0,5.66,357.0,6.18,14.32,47.59359,-54.27349
2022-05-03 14:14:01+00:00,359.0,5.7,359.0,6.35,14.08,47.59359,-54.27349
2022-05-03 14:24:01+00:00,354.0,4.35,355.0,4.57,14.08,47.59359,-54.27349
2022-05-03 14:34:01+00:00,52.0,3.01,51.0,3.7,14.08,47.59359,-54.27349
2022-05-03 14:44:01+00:00,59.0,2.45,65.0,2.85,14.08,47.59359,-54.27349
2022-05-03 14:54:01+00:00,52.0,2.13,57.0,2.41,14.08,47.59359,-54.27349
2022-05-03 15:04:01+00:00,55.0,1.57,57.0,1.96,14.08,47.59359,-54.27349
2022-05-03 15:14:01+00:00,36.0,1.51,32.0,2.09,14.32,47.59359,-54.27349
2022-05-03 15:24:01+00:00,48.0,1.19,45.0,1.6,14.32,47.59359,-54.27349
2022-05-03 15:34:01+00:00,68.0,1.75,79.0,3.44,14.32,47.59359,-54.27349
2022-05-03 15:44:01+00:00,84.0,3.09,84.0,5.75,14.32,47.59359,-54.27349
2022-05-03 15:54:01+00:00,74.0,3.77,84.0,5.43,14.32,47.59359,-54.27349
2022-05-03 16:04:01+00:00,101.0,0.82,79.0,3.24,14.32,47.59359,-54.27349
2022-05-03 16:14:00+00:00,84.0,5.27,82.0,6.32,14.4,47.59359,-54.27349
2022-05-03 16:24:00+00:00,80.0,5.86,79.0,6.37,14.4,47.59359,-54.27349
2022-05-03 16:34:00+00:00,67.0,2.46,73.0,5.4,14.4,47.59359,-54.27349
2022-05-03 16:44:00+00:00,65.0,5.1,64.0,6.09,14.4,47.59359,-54.27349
2022-05-03 16:54:00+00:00,0.0,4.8,359.0,5.22,14.4,47.59359,-54.27349
2022-05-03 17:04:00+00:00,39.0,4.05,59.0,6.44,14.4,47.59359,-54.27349
2022-05-03 17:14:01+00:00,41.0,4.85,59.0,6.71,13.84,47.59359,-54.27349
2022-05-03 17:24:01+00:00,356.0,4.15,353.0,4.56,13.84,47.59359,-54.27349
2022-05-03 17:34:01+00:00,359.0,4.74,1.0,5.35,13.84,47.59359,-54.27349
2022-05-03 17:44:01+00:00,350.0,6.11,353.0,6.88,13.84,47.59359,-54.27349
2022-05-03 17:54:01+00:00,344.0,6.6,347.0,7.1,13.84,47.59359,-54.27349
2022-05-03 18:04:01+00:00,350.0,5.56,345.0,6.42,13.84,47.59359,-54.27349
2022-05-03 18:14:01+00:00,14.0,7.3,33.0,9.11,13.68,47.59359,-54.27349
2022-05-03 18:24:01+00:00,11.0,6.88,16.0,8.97,13.68,47.59359,-54.27349
2022-05-03 18:34:01+00:00,10.0,7.09,9.0,9.07,13.68,47.59359,-54.27349
2022-05-03 18:44:01+00:00,10.0,6.72,16.0,8.3,13.68,47.59359,-54.27349
2022-05-03 18:54:01+00:00,2.0,8.47,6.0,9.67,13.68,47.59359,-54.27349
2022-05-03 19:04:01+00:00,12.0,7.55,3.0,9.06,13.68,47.59359,-54.27349
2022-05-03 19:14:00+00:00,15.0,8.74,30.0,10.43,13.84,47.59359,-54.27349
2022-05-03 19:24:00+00:00,25.0,10.6,30.0,12.06,13.84,47.59359,-54.27349
2022-05-03 19:34:00+00:00,13.0,10.14,23.0,11.81,13.84,47.59359,-54.27349
2022-05-03 19:44:00+00:00,4.0,7.83,3.0,8.88,13.84,47.59359,-54.27349
2022-05-03 19:54:00+00:00,8.0,5.66,10.0,7.06,13.84,47.59359,-54.27349
2022-05-03 20:04:00+00:00,1.0,6.92,3.0,7.97,13.84,47.59359,-54.27349
2022-05-03 20:14:01+00:00,2.0,6.9,1.0,7.6,13.53,47.59359,-54.27349
2022-05-03 20:24:01+00:00,0.0,7.15,1.0,8.45,13.53,47.59359,-54.27349
2022-05-03 20:34:01+00:00,359.0,6.46,3.0,7.2,13.53,47.59359,-54.27349
2022-05-03 20:44:01+00:00,7.0,6.6,15.0,7.41,13.53,47.59359,-54.27349
2022-05-03 20:54:01+00:00,6.0,6.83,2.0,8.03,13.53,47.59359,-54.27349
2022-05-03 21:04:01+00:00,4.0,7.9,0.0,9.1,13.53,47.59359,-54.27349
2022-05-03 21:14:01+00:00,359.0,6.4,357.0,7.22,13.29,47.59359,-54.27349
2022-05-03 21:24:01+00:00,9.0,6.74,13.0,7.85,13.29,47.59359,-54.27349
2022-05-03 21:34:01+00:00,15.0,6.57,27.0,8.12,13.29,47.59359,-54.27349
2022-05-03 21:44:01+00:00,0.0,6.52,2.0,7.38,13.29,47.59359,-54.27349
2022-05-03 21:54:01+00:00,3.0,5.15,2.0,6.67,13.29,47.59359,-54.27349
2022-05-03 22:04:01+00:00,355.0,4.84,353.0,5.56,13.29,47.59359,-54.27349
2022-05-03 22:14:01+00:00,13.0,5.79,7.0,7.27,12.97,47.59359,-54.27349
2022-05-03 22:24:01+00:00,26.0,8.18,36.0,9.79,12.97,47.59359,-54.27349
2022-05-03 22:34:01+00:00,39.0,7.31,41.0,8.16,12.97,47.59359,-54.27349
2022-05-03 22:44:01+00:00,39.0,8.23,40.0,8.73,12.97,47.59359,-54.27349
2022-05-03 22:54:01+00:00,14.0,6.96,37.0,9.32,12.97,47.59359,-54.27349
2022-05-03 23:04:01+00:00,12.0,6.6,29.0,8.08,12.97,47.59359,-54.27349
2022-05-03 23:14:00+00:00,32.0,7.15,38.0,8.57,12.41,47.59359,-54.27349
2022-05-03 23:24:00+00:00,2.0,7.24,31.0,8.98,12.41,47.59359,-54.27349
2022-05-03 23:34:00+00:00,3.0,6.81,16.0,7.56,12.41,47.59359,-54.27349
2022-05-03 23:44:00+00:00,1.0,7.24,32.0,8.11,12.41,47.59359,-54.27349
2022-05-03 23:54:00+00:00,357.0,5.79,357.0,7.36,12.41,47.59359,-54.27349
